Tracking 19827 objects as of 22-Aug-2019
HD Live streaming from Space Station
objects crossing your sky now

FENGYUN 1C DEB

Track FENGYUN 1C DEB now!
10-day predictions


NORAD ID: 30341
Int'l Code: 1999-025ABC
Perigee: 815.0 km
Apogee: 915.3 km
Inclination: 99.2 °
Period: 102.1 minutes
Semi major axis: 7236 km
RCS: 0.0444 m2 (small)
Launch date: May 10, 1999
Source: People's Republic of China (PRC)
Launch site: Taiyaun Space Center, China (TSC)

Note: This is SATELLITE DEBRIS
aabbcc
Your satellite tracking list
Your tracking list is empty




NASA's NSSDC Master Catalog

Two Line Element Set (TLE):
1 30341U 99025ABC 19232.95008653 +.00000390 +00000-0 +24026-3 0  9998
2 30341 099.2244 358.9222 0069303 092.7988 031.3355 14.10411115644191
Source of the keplerian elements: AFSPC